Location: Tamazert
(32.6352°N, 5.2072°W)
Time: 03:27:53
(UTC+00:00)

Tiros 1 despin weight - Pass Details

Date: 11 October 2022
Orbit: 590 x 637 km, 48.2° (Epoch: 30 November)

Event Time Altitude Azimuth Distance (km) Brightness Sun altitude
Rises 15:31:42 0° 305° (NW) 2,834 ? 27.3°
Reaches altitude 10° 15:36:01 10° 344° (NNW) 1,945 ? 26.5°
Maximum altitude 15:37:00 11° 357° (N) 1,908 ? 26.3°
Drops below altitude 10° 15:37:59 10° 10° (N) 1,951 ? 26.1°
Sets 15:42:20 0° 50° (NE) 2,871 ? 25.3°
